GFSSE_sfc_rhum_072.txt.gz
RH
62 75 92 91 91 91 91 92 92 91 90 87 89 89 88 87 85 84 82 81 78 77 75 76 77 75 76 78 81 84 83 82 82 80 79 77 74 74 78 80 79 74 81
63 69 93 92 91 91 91 92 92 91 88 87 88 89 88 86 84 83 82 80 81 80 75 76 76 75 77 80 84 84 84 83 83 82 81 78 76 76 78 82 82 78 80
59 68 75 93 92 91 90 91 91 90 88 87 88 88 87 86 84 84 83 83 80 78 76 76 76 77 78 82 83 83 83 83 80 76 76 72 72 75 76 79 80 77 76
49 67 67 91 91 91 91 90 90 88 87 86 87 87 86 85 86 84 82 80 79 78 74 72 75 77 79 83 82 82 83 81 74 70 61 62 63 72 72 73 73 73 74
50 48 64 89 91 92 91 88 87 88 87 86 86 87 85 86 85 84 82 80 77 77 73 74 77 80 81 82 82 79 77 74 74 57 64 65 65 68 69 68 71 74 74
53 50 90 90 91 93 91 88 85 88 88 87 87 86 86 85 84 84 81 77 76 75 74 76 76 80 82 79 74 72 70 71 73 50 59 68 68 73 70 70 69 67 67
60 63 76 91 92 92 88 86 83 85 88 86 87 86 85 84 83 83 81 77 75 76 78 78 79 81 81 76 77 71 68 73 44 51 60 67 62 66 67 68 69 69 69
67 72 72 85 91 90 84 91 96 96 93 88 88 86 84 84 83 82 81 79 81 82 83 83 83 82 80 79 72 69 73 73 44 52 59 66 70 66 67 68 68 68 67
74 78 80 82 87 92 94 94 87 91 94 92 88 86 85 84 83 82 82 83 85 86 85 83 84 82 80 76 74 74 74 70 45 52 55 64 67 65 66 67 67 67 67
75 82 84 82 84 91 90 91 90 86 89 86 90 87 87 85 84 84 84 85 86 86 84 82 85 83 81 78 74 73 75 64 44 51 60 66 66 64 65 66 66 66 66
74 77 83 86 83 80 92 90 85 89 86 97 89 89 88 77 81 81 82 87 86 86 86 86 86 85 81 75 76 77 75 43 47 56 64 72 66 64 65 65 66 66 66
71 81 86 88 84 83 85 91 92 94 96 98 87 85 75 80 83 78 85 88 87 87 87 87 86 81 69 65 66 70 64 44 50 59 68 74 66 64 65 65 66 66 66
62 77 87 86 88 87 88 92 94 93 96 97 87 81 79 83 89 90 84 83 87 86 79 79 76 58 55 59 61 63 60 47 53 59 71 75 64 64 65 66 65 65 65
65 72 81 85 87 89 95 95 95 95 97 98 94 90 90 93 93 93 69 76 70 68 68 67 63 61 56 54 58 58 56 49 58 64 76 77 68 62 64 65 64 64 65
66 75 83 83 90 96 94 96 95 96 98 98 94 92 93 92 92 88 65 64 62 62 60 60 61 52 56 52 59 55 51 52 58 62 73 78 74 67 62 64 64 65 65
67 76 82 85 89 94 98 97 98 96 97 97 97 93 93 93 92 92 69 60 64 59 57 57 58 57 57 56 60 55 52 51 56 63 69 81 77 76 67 64 64 64 65
71 79 89 89 93 96 95 98 98 97 94 95 94 89 90 90 91 87 79 64 63 58 58 60 57 59 60 49 55 58 58 56 54 62 66 72 80 82 79 72 68 65 65
69 81 88 88 95 97 98 98 97 97 96 94 94 94 89 88 88 84 74 66 60 59 60 61 60 62 61 59 60 59 58 58 58 60 61 66 68 65 82 82 77 74 71
70 85 89 91 92 95 97 98 97 95 95 94 92 92 90 86 79 72 85 77 70 61 69 58 65 63 64 60 57 60 60 60 62 48 60 62 66 63 71 83 85 83 79
74 90 89 89 91 95 97 96 96 96 95 95 94 93 85 80 71 71 76 74 78 70 70 66 63 64 61 61 35 48 59 61 61 63 58 51 62 63 64 67 79 80 86
84 93 90 92 96 95 96 98 97 97 96 94 92 84 85 81 66 72 77 78 71 70 69 70 71 68 68 67 64 67 64 60 61 58 58 57 53 54 57 72 73 73 78
78 89 91 87 93 89 88 88 86 90 88 84 84 85 79 75 68 69 72 73 75 74 74 74 73 80 76 73 70 72 78 74 68 65 63 56 60 54 54 57 66 66 64
76 86 91 87 87 84 81 81 83 83 93 89 79 82 82 67 64 65 70 72 76 75 75 78 80 78 86 80 76 85 87 88 85 72 66 69 65 70 62 59 61 62 64
72 75 82 84 83 82 79 82 85 87 90 77 68 68 84 76 65 60 64 69 72 73 80 86 84 79 87 86 86 80 87 85 86 96 89 71 74 66 71 72 65 67 64
67 71 81 79 80 78 77 75 80 81 77 72 63 66 84 83 74 67 75 78 76 76 85 88 84 85 84 90 84 91 84 86 86 86 88 86 76 73 73 73 72 72 70
65 70 80 81 80 77 78 74 76 77 76 75 71 72 82 78 81 77 78 81 85 86 85 85 84 84 91 89 83 86 85 80 85 91 94 89 90 84 83 79 70 79 72

GFSSE_sfc_rhum_078.txt.gz
RH
91 95 95 93 93 93 93 94 92 92 91 89 89 89 88 87 86 84 82 81 81 81 77 80 82 81 79 80 84 85 85 85 83 82 81 78 77 77 80 84 83 78 82
90 93 96 93 93 93 93 94 92 92 91 90 89 89 87 86 85 83 83 82 82 79 76 78 80 76 79 82 86 86 85 85 83 82 80 76 77 76 78 83 84 80 82
94 92 92 94 93 93 92 92 92 91 90 90 89 88 87 86 84 83 82 82 80 79 76 75 76 78 81 86 87 87 87 86 85 84 81 75 73 76 80 82 83 81 79
88 94 92 95 94 93 92 92 91 89 89 89 88 87 87 85 86 86 84 82 80 79 76 72 73 78 85 86 86 85 84 84 83 82 75 76 72 77 78 79 77 76 75
87 92 93 95 94 93 92 92 90 90 91 90 87 87 86 86 88 87 87 85 81 78 68 70 75 83 86 85 84 83 82 81 80 74 77 78 77 77 77 76 73 71 71
85 88 97 96 95 93 92 92 91 91 91 90 88 87 86 87 87 87 87 83 80 79 77 75 82 86 86 85 82 83 81 81 80 71 73 74 71 76 74 74 74 72 69
87 92 96 97 95 93 92 92 91 91 91 90 88 87 87 87 87 88 86 82 81 78 78 82 85 87 85 81 80 82 82 81 77 82 71 71 68 72 66 66 67 67 67
94 95 92 95 96 94 92 91 92 92 91 88 83 84 89 86 86 87 85 84 84 83 83 85 84 82 80 79 80 81 81 76 71 76 60 61 72 70 68 65 68 68 68
94 96 96 96 97 97 93 92 93 94 96 96 92 86 92 92 85 86 86 86 84 84 87 85 83 80 79 78 80 81 80 78 73 73 69 59 67 66 66 67 68 68 68
94 96 96 96 98 99 99 95 94 95 93 93 92 90 85 94 91 87 88 87 84 84 87 85 82 80 79 80 80 81 80 79 79 82 82 68 68 66 66 67 68 68 68
92 94 97 97 98 97 98 97 94 92 91 91 88 88 98 94 87 88 88 88 87 87 88 86 82 81 80 78 80 80 75 71 74 80 82 74 67 65 66 67 68 68 68
95 94 96 99 99 96 94 96 98 97 94 91 91 95 95 95 89 85 89 90 90 89 89 86 82 82 71 67 69 73 70 70 74 81 77 75 67 66 67 68 69 69 68
88 93 96 98 98 98 97 99 99 100 98 95 93 92 94 96 96 92 91 89 91 89 85 85 80 71 67 66 63 70 71 72 75 76 75 76 68 66 67 68 68 69 69
90 92 92 94 99 97 98 98 97 99 96 97 95 93 97 98 96 93 86 90 89 83 88 84 80 73 69 66 64 71 72 73 79 83 79 79 73 67 66 67 68 68 69
92 97 97 96 98 98 95 97 98 98 98 96 95 92 93 95 93 92 84 95 94 94 86 76 71 64 68 68 63 69 74 76 79 81 88 82 77 71 66 66 67 68 68
97 98 96 95 97 98 97 98 97 97 97 96 99 95 89 92 94 95 92 87 91 86 76 76 79 67 67 69 65 70 74 76 76 84 86 82 82 77 71 66 67 67 67
96 97 96 95 96 98 98 98 98 95 97 98 97 95 94 91 91 89 81 78 76 85 79 81 78 70 67 68 68 73 75 76 79 81 86 89 82 82 80 73 70 67 67
97 97 97 96 97 98 98 99 99 98 96 96 96 96 91 85 83 79 71 72 70 68 70 81 83 75 70 72 72 73 77 78 77 80 84 87 88 78 82 82 76 73 69
96 97 98 99 97 99 97 99 99 98 97 96 94 95 92 80 77 66 64 71 67 59 68 73 81 72 73 75 70 77 79 84 82 74 81 86 89 84 86 84 84 82 78
97 96 98 99 94 98 99 98 99 99 98 97 95 93 89 82 74 68 76 85 74 67 81 77 75 74 66 71 53 69 82 85 87 86 80 75 82 83 88 88 86 81 85
98 97 98 99 98 98 98 98 99 98 98 97 93 86 83 80 78 73 68 89 81 80 79 74 74 67 82 75 75 77 75 82 85 84 87 83 85 85 90 84 86 81 80
93 97 97 97 97 91 92 93 95 96 97 95 94 87 81 79 74 76 70 84 86 87 91 86 75 86 81 71 69 77 78 73 73 73 82 85 89 79 81 80 82 83 82
96 98 92 92 95 97 92 89 93 96 98 99 97 95 90 84 77 76 81 80 87 81 87 90 84 68 84 81 63 84 91 76 82 80 76 79 84 87 80 81 83 82 84
96 96 95 89 92 92 92 88 91 94 96 95 93 89 84 82 80 80 80 84 88 81 88 90 87 82 88 79 86 86 85 89 89 94 93 79 75 72 77 80 79 80 81
97 96 88 88 90 88 88 93 86 90 85 89 88 90 87 86 87 81 85 84 83 83 88 90 92 90 90 91 69 94 91 94 91 90 90 91 92 84 69 69 69 71 79
97 96 89 88 89 89 87 89 90 85 86 89 88 88 86 83 85 85 85 83 84 83 82 86 87 89 91 91 90 87 86 89 92 93 93 91 92 90 87 82 81 72 69

GFSSE_sfc_rhum_084.txt.gz
RH
92 97 92 84 86 90 93 95 95 94 89 87 88 89 89 89 89 88 87 85 83 81 79 79 84 83 78 78 83 83 86 86 85 82 82 79 76 78 81 84 84 76 82
94 96 94 86 90 90 92 94 94 94 91 89 89 89 89 89 88 87 88 86 84 81 77 82 84 80 79 82 86 87 87 87 85 83 81 78 77 76 79 83 84 78 83
95 97 95 90 91 92 91 92 93 92 92 91 90 89 89 88 87 88 88 86 83 77 73 80 79 77 82 87 88 88 87 86 86 85 83 77 76 77 80 83 84 82 81
95 96 96 94 93 86 92 91 92 87 90 90 90 89 89 87 87 88 88 84 80 80 80 79 77 80 86 89 88 87 88 88 86 83 75 74 70 78 78 79 79 78 77
98 97 94 96 94 85 93 92 92 90 87 90 90 88 88 87 87 88 88 85 83 82 80 75 78 85 90 90 90 89 88 88 88 84 83 86 80 74 74 74 75 77 79
98 97 97 98 95 87 91 92 92 93 92 91 89 87 87 86 86 88 88 85 82 80 78 79 85 89 90 90 88 88 89 88 89 87 83 81 78 72 69 69 75 76 77
97 90 90 96 96 87 88 92 93 94 93 91 89 85 86 81 84 87 85 82 83 82 81 84 88 90 90 89 88 88 87 86 84 86 85 82 77 72 72 70 70 71 71
98 93 89 96 96 90 90 94 95 94 92 90 87 82 81 86 85 84 83 84 84 80 85 88 89 89 88 88 88 87 86 83 76 78 78 79 80 75 73 70 72 72 73
97 99 94 92 96 95 95 96 96 94 92 91 89 89 88 86 84 84 84 83 82 83 86 89 89 88 87 88 88 87 86 83 78 75 73 74 77 74 71 69 67 68 68
98 98 95 95 95 97 97 96 92 91 90 91 92 91 90 87 87 90 87 83 84 86 89 88 86 88 87 88 87 85 85 81 74 72 71 73 76 73 67 64 68 64 65
99 99 99 94 94 97 99 96 93 90 89 90 91 91 93 93 93 89 93 89 81 87 90 85 88 89 88 88 86 85 79 80 76 79 68 78 65 60 63 64 64 65 66
99 100 99 99 97 95 97 96 95 93 93 92 93 92 94 94 91 85 92 94 87 90 87 86 90 89 87 86 82 81 78 82 79 86 78 74 68 65 68 67 65 64 68
97 99 99 99 98 96 96 97 98 97 96 96 97 95 96 95 93 92 93 94 94 91 85 85 88 83 86 84 86 82 82 82 86 86 75 76 71 65 64 63 68 70 71
96 97 99 98 97 98 96 98 96 97 98 98 98 97 97 98 96 96 96 95 90 90 86 88 86 87 87 84 83 82 81 84 86 88 79 78 73 66 66 71 71 70 68
95 95 98 98 98 98 97 98 97 97 98 97 98 94 95 96 96 96 95 95 95 93 86 79 77 79 83 84 83 79 84 89 88 88 85 81 78 72 70 70 68 67 68
92 94 97 99 98 98 98 98 99 99 97 97 97 96 91 94 95 94 97 95 94 88 80 78 75 74 77 79 84 84 85 83 88 90 89 82 80 78 67 64 65 67 67
90 94 98 98 97 96 96 97 98 98 96 97 96 97 91 93 95 95 96 97 94 89 80 78 79 82 81 80 84 86 86 85 87 89 91 90 84 82 79 74 70 67 67
96 96 98 98 98 95 96 98 97 98 96 96 96 95 96 91 90 96 96 96 91 85 77 72 73 80 83 84 92 92 89 88 89 90 91 90 91 83 81 79 76 74 68
95 97 98 98 98 98 95 96 97 95 97 94 97 95 94 93 92 92 92 93 89 82 77 75 80 78 81 85 86 93 94 94 91 83 91 91 91 89 88 83 81 80 78
97 97 96 98 98 96 99 99 99 98 96 96 96 94 91 95 96 93 90 90 85 80 79 73 73 82 80 83 74 90 96 95 93 94 92 86 90 89 89 88 86 84 84
99 98 95 98 98 96 99 99 99 98 98 98 96 96 95 93 96 91 85 88 79 77 76 74 71 82 89 89 90 95 95 95 93 94 92 91 90 88 90 88 88 88 82
96 95 94 88 94 94 98 92 96 99 98 96 95 98 96 96 89 80 81 79 73 77 79 75 69 88 88 82 91 91 98 92 90 90 91 88 89 85 86 87 89 91 89
96 97 92 89 85 88 94 94 98 99 99 99 99 98 97 95 86 76 79 73 70 69 74 72 72 75 80 86 75 87 95 95 94 90 92 89 89 90 83 85 87 86 88
93 91 90 89 84 88 95 94 95 98 98 99 99 97 97 92 84 80 72 68 69 69 71 79 69 72 82 84 89 85 82 87 92 93 91 87 88 90 88 88 84 85 85
87 90 87 92 89 92 95 92 94 95 96 98 99 98 98 95 88 86 86 76 76 77 82 86 89 88 85 83 80 93 90 92 89 88 89 91 87 86 84 85 86 86 85
84 85 89 94 86 88 92 94 92 94 98 98 99 98 98 97 96 92 91 90 90 90 91 89 89 88 89 85 77 87 88 88 89 90 90 91 90 86 80 84 88 86 84

GFSSE_sfc_rhum_087.txt.gz
RH
68 71 91 82 83 94 95 95 95 91 89 88 90 90 89 89 90 90 89 88 84 81 79 78 83 82 80 79 83 85 86 86 84 80 82 80 77 79 81 83 78 62 82
61 73 91 85 87 93 94 95 95 91 88 89 90 90 89 90 90 89 87 85 83 81 78 80 84 82 81 84 87 88 88 87 86 84 82 80 78 78 80 81 78 70 82
73 76 77 86 87 92 93 93 94 90 89 90 90 90 90 90 89 88 88 86 83 81 81 81 82 80 82 87 89 88 88 87 85 83 81 66 66 78 79 84 84 82 82
77 76 74 85 82 92 94 94 87 91 90 90 90 90 90 88 88 89 88 86 83 82 82 79 79 82 87 89 89 88 88 88 88 84 61 63 66 78 78 78 80 80 80
74 74 78 83 85 87 93 94 86 85 91 91 90 89 89 88 88 89 89 84 80 81 80 77 80 87 90 89 89 89 88 88 86 67 59 62 60 72 77 79 79 79 77
76 75 86 87 86 90 93 94 87 88 90 92 90 90 88 88 88 82 83 85 83 82 80 79 84 90 91 91 90 89 89 87 76 53 59 64 61 73 72 74 81 81 80
80 80 85 94 90 92 90 92 93 90 92 90 91 90 88 87 83 81 80 78 82 81 79 83 88 92 91 90 90 90 90 84 54 54 58 59 61 70 69 68 72 77 78
83 82 84 93 92 92 91 93 96 94 92 92 91 90 85 82 78 83 81 80 83 84 84 85 91 91 90 90 90 90 89 80 60 56 56 58 73 72 72 72 76 77 76
90 87 86 89 86 94 95 95 96 95 93 93 92 88 85 84 84 84 82 81 82 86 87 89 91 90 90 89 89 88 86 82 58 55 54 58 79 72 73 74 74 74 73
88 92 88 90 91 89 92 98 96 96 94 91 92 92 90 88 88 86 85 83 82 88 89 90 91 90 90 90 88 87 85 81 55 50 53 64 78 73 72 72 69 71 68
91 93 91 93 90 87 93 95 95 94 92 89 90 90 90 80 80 85 88 86 86 90 91 89 90 90 90 88 87 85 77 53 51 47 52 81 76 71 67 63 70 65 70
94 94 93 94 93 92 95 94 91 90 84 87 85 82 85 86 85 86 89 93 94 95 92 88 91 91 80 64 66 74 53 56 51 51 51 80 73 67 68 68 66 66 66
85 92 94 93 93 95 96 98 98 95 93 90 91 90 88 89 92 90 92 94 95 95 96 89 82 65 67 62 59 59 59 58 54 51 58 78 72 68 69 61 61 63 66
80 88 92 92 95 95 96 97 98 98 95 95 92 94 95 97 97 93 84 86 92 96 94 83 70 69 69 65 64 65 61 56 55 52 57 79 75 69 66 61 70 72 70
73 79 92 91 94 94 95 96 97 97 96 93 94 94 94 92 96 92 85 91 97 96 94 81 69 68 68 66 63 62 63 62 62 52 51 79 76 70 64 70 70 71 72
68 72 84 92 96 92 94 94 96 95 96 96 95 93 92 93 93 92 87 90 91 93 88 76 67 65 63 62 64 63 62 61 60 59 52 59 78 78 77 71 70 70 71
64 70 83 94 94 94 92 94 96 96 97 98 97 94 92 91 90 88 93 91 93 90 76 68 67 63 65 63 63 62 60 62 63 61 58 54 61 84 82 77 72 67 66
61 72 80 88 91 94 92 96 96 97 98 97 96 95 92 91 87 91 95 94 95 92 68 67 63 65 64 62 67 63 63 60 61 62 58 58 57 54 77 80 77 74 71
62 70 82 89 92 94 88 91 95 95 97 96 96 96 91 90 89 92 95 96 94 91 71 63 64 64 65 62 60 61 62 62 63 57 62 64 64 57 56 79 79 79 76
66 71 77 87 91 88 88 91 94 96 97 95 95 92 88 89 92 93 93 97 95 87 71 61 68 65 66 63 56 62 64 61 60 60 62 60 62 63 60 59 61 62 81
75 78 80 88 90 92 95 98 98 98 97 98 95 91 90 94 94 95 94 94 92 81 68 70 70 74 68 64 68 71 70 71 69 63 64 65 66 64 64 62 60 54 58
75 77 83 78 87 84 82 88 90 97 96 94 94 90 92 93 96 96 94 91 86 80 74 72 72 70 67 69 64 66 80 75 68 70 67 66 68 61 64 65 65 64 60
78 83 84 75 76 82 81 82 88 93 97 98 98 98 95 93 94 95 91 89 80 78 73 70 70 69 75 70 67 60 80 69 71 65 71 64 67 67 65 66 73 71 68
78 84 80 76 74 74 77 76 83 84 91 97 95 97 98 96 97 92 90 84 78 77 74 71 65 69 74 74 72 64 63 65 65 80 72 68 67 70 72 68 66 66 66
82 85 83 78 74 75 88 85 85 85 90 92 99 98 97 96 92 87 84 77 75 74 77 77 78 76 73 71 66 73 67 68 70 69 71 71 67 69 69 67 64 65 65
79 86 86 89 78 82 86 86 84 86 89 97 99 98 98 97 94 85 80 80 76 75 78 77 78 79 82 75 66 70 65 63 65 70 67 73 74 67 65 65 70 68 66

GFSSE_sfc_rhum_090.txt.gz
RH
35 42 92 90 89 93 94 93 92 91 90 89 91 91 90 90 90 91 90 89 86 84 81 79 81 80 79 79 83 86 87 87 84 83 82 80 78 78 78 81 75 59 84
36 47 91 88 88 93 94 94 93 91 90 90 90 91 90 90 91 91 89 87 86 83 79 79 81 79 79 84 88 88 87 87 87 84 82 78 77 76 76 78 76 69 83
43 48 70 89 90 93 93 94 93 91 90 90 91 90 90 91 91 90 89 86 84 82 79 79 79 79 80 89 89 88 89 88 87 84 79 52 61 78 81 85 85 83 82
40 47 55 90 90 94 94 95 93 91 90 91 91 90 90 90 90 88 88 87 84 83 82 78 78 81 87 90 90 89 88 88 87 83 56 55 56 78 78 80 81 80 80
42 43 53 88 87 93 94 94 93 91 91 92 91 90 90 89 89 89 88 86 84 83 81 78 80 87 91 91 90 90 89 87 86 66 47 53 57 71 77 78 79 78 77
40 42 78 88 89 93 94 93 86 93 94 93 92 90 89 89 88 88 87 86 84 82 81 80 85 91 92 92 91 90 88 85 83 48 55 61 59 77 77 81 83 83 83
45 48 64 89 91 90 93 92 84 93 94 92 92 91 89 88 88 86 86 85 84 82 79 85 91 93 93 92 91 89 86 84 50 46 49 57 62 74 75 78 79 81 80
51 58 64 84 91 90 94 94 88 90 94 94 92 92 90 88 83 83 84 84 83 83 84 90 92 93 92 92 91 89 87 82 51 51 53 57 73 71 69 76 78 79 76
58 62 76 78 76 94 94 96 95 91 92 93 92 91 86 84 84 84 82 85 84 83 88 91 92 92 92 91 90 89 87 80 44 53 54 55 78 70 68 72 74 75 73
69 69 76 82 74 71 73 96 96 95 94 93 95 92 90 89 85 86 86 85 86 88 92 92 92 92 91 91 89 88 87 80 48 52 52 57 77 72 70 70 72 72 73
67 75 75 81 76 75 69 76 94 96 95 94 90 93 90 70 71 71 84 91 90 92 92 93 93 92 91 90 88 87 84 47 48 49 54 82 76 70 69 69 70 68 68
63 73 83 77 75 80 67 75 76 71 68 71 69 71 71 67 66 67 81 90 93 97 93 94 94 93 81 62 66 79 51 45 46 48 49 82 76 70 64 69 68 68 69
49 73 87 80 80 82 85 82 75 71 65 67 72 69 71 74 74 66 77 89 93 96 93 96 95 81 64 59 58 57 51 49 48 41 67 82 75 67 68 67 65 69 68
41 58 82 84 86 88 83 89 82 88 78 85 71 81 88 81 83 76 83 90 92 93 95 97 94 77 62 57 58 59 51 43 37 35 58 80 76 70 68 65 61 64 69
38 52 72 86 87 87 88 93 94 90 91 81 82 74 78 86 79 81 85 90 81 96 96 96 88 74 64 59 54 52 50 45 44 35 41 80 80 76 66 64 68 68 69
31 44 61 82 88 88 88 88 94 90 88 89 88 86 78 88 85 69 89 88 88 90 93 91 91 76 63 52 52 51 49 46 45 42 37 58 81 78 71 69 69 69 71
29 39 56 80 88 91 89 86 89 86 90 92 91 92 86 90 89 86 89 92 89 81 95 94 82 69 58 48 52 49 48 46 42 44 42 58 60 85 81 78 75 72 70
25 35 48 69 84 89 90 90 87 87 90 94 93 94 93 92 88 78 92 93 91 89 94 95 83 70 61 50 50 47 44 42 46 47 43 54 56 52 80 82 79 77 74
22 34 48 64 83 88 88 90 88 83 86 94 96 96 94 91 89 90 89 93 92 92 93 91 87 65 59 51 48 48 44 43 46 39 43 46 53 52 53 80 82 81 78
23 36 47 58 79 84 86 82 75 84 86 92 96 94 92 92 90 92 93 97 94 92 94 87 76 63 52 50 42 46 49 48 46 45 42 40 44 48 52 57 62 59 81
30 41 46 59 80 82 84 86 78 87 84 94 94 91 90 93 92 93 94 97 94 93 93 84 72 64 56 54 56 61 67 59 58 43 42 42 45 47 48 44 46 43 54
33 44 48 54 78 75 62 59 63 81 81 86 93 93 88 90 88 94 95 94 94 93 93 78 72 65 59 61 64 61 82 75 66 54 43 45 52 45 48 50 47 45 44
39 47 48 52 70 66 58 56 67 83 90 93 96 97 94 89 91 96 94 94 94 93 93 76 71 63 65 65 58 53 65 58 61 58 56 47 52 49 45 46 48 48 50
39 46 50 53 58 61 60 59 68 62 82 90 94 94 95 94 93 96 94 94 93 88 85 72 64 64 64 65 59 44 45 38 54 65 53 53 49 50 53 46 47 51 53
39 51 58 55 55 57 60 57 64 64 63 63 79 95 94 97 95 96 95 94 92 87 79 69 68 66 60 58 57 57 57 52 49 42 51 53 51 47 48 54 49 54 56
44 67 66 58 56 57 59 59 61 64 68 70 92 97 97 98 98 96 94 94 92 87 80 72 72 68 65 63 57 58 56 56 54 47 42 49 53 52 50 50 58 55 52

GFSSE_sfc_rhum_093.txt.gz
RH
22 46 92 92 92 92 91 92 91 91 91 91 91 91 92 92 92 92 91 89 87 85 81 81 81 80 79 79 82 88 89 88 87 86 84 81 77 76 77 81 75 63 84
24 45 94 92 91 92 92 91 93 92 91 90 91 92 92 92 92 92 91 89 86 84 80 81 80 79 79 82 89 88 88 89 88 85 83 79 77 74 74 80 79 74 85
30 44 66 90 91 92 92 92 92 92 91 91 92 92 92 92 92 92 91 89 86 83 80 80 79 78 80 88 89 89 89 88 87 85 79 50 61 78 80 85 85 84 83
29 42 51 92 93 94 94 94 93 92 90 91 92 91 91 92 91 91 90 90 86 84 81 79 79 81 88 91 91 90 89 88 86 83 59 56 60 80 80 83 82 82 81
26 34 51 91 94 94 94 95 94 93 92 92 92 89 91 90 90 90 90 89 86 84 82 79 80 87 92 92 91 90 88 86 84 73 56 61 63 73 79 82 82 80 79
25 29 83 91 93 94 94 95 95 94 94 93 92 90 90 89 89 90 87 88 85 84 82 81 86 92 93 93 91 89 87 86 87 79 58 67 62 76 79 84 85 85 84
29 34 62 90 91 93 94 93 90 92 95 94 93 92 89 89 84 83 87 87 86 83 81 84 93 93 93 93 91 89 88 85 57 67 57 69 70 79 79 80 82 83 82
34 40 58 84 90 93 94 92 88 92 95 95 93 92 90 88 83 87 88 85 86 85 84 90 93 93 93 92 90 88 87 87 60 70 59 64 77 78 78 79 82 83 81
42 50 60 66 74 94 95 95 91 91 95 95 94 91 92 89 88 88 85 81 81 88 89 94 94 93 92 92 88 88 85 85 50 59 61 58 77 73 75 77 77 76 78
50 56 62 65 66 67 73 97 95 92 93 95 95 95 90 88 87 88 87 86 83 87 88 94 94 94 94 92 88 87 83 77 66 55 58 59 77 70 69 73 74 72 73
55 58 65 66 62 60 58 73 93 94 93 94 92 95 93 66 69 72 79 89 86 88 83 89 95 93 93 92 91 88 85 51 53 58 60 82 77 69 68 70 70 70 70
55 61 63 70 65 60 49 63 66 65 66 69 65 66 70 64 66 57 76 92 92 93 97 96 96 94 85 68 76 81 48 58 57 68 60 84 76 69 68 70 68 66 70
42 47 66 66 66 65 55 54 54 60 59 60 65 59 59 58 72 76 75 77 88 91 93 96 98 90 70 70 67 59 56 66 56 63 70 85 77 68 67 68 67 67 70
31 40 66 74 63 72 57 59 50 48 63 64 66 70 65 67 81 75 68 73 78 94 93 96 97 88 78 66 68 57 60 61 42 58 67 84 78 69 66 65 69 67 66
22 33 52 75 64 67 72 69 67 66 53 59 70 71 69 68 79 66 77 64 84 92 94 95 96 94 92 71 69 60 61 52 52 49 52 83 81 76 68 63 63 68 63
16 25 49 63 68 62 69 80 75 76 80 68 63 73 72 74 72 74 69 73 78 89 95 94 95 94 94 78 68 63 55 46 38 37 45 59 84 80 73 68 64 69 69
14 18 43 62 77 72 74 81 78 67 73 75 70 71 74 72 77 70 83 82 82 90 89 95 96 95 94 77 59 54 43 41 39 38 43 50 64 84 80 77 75 70 69
12 18 28 44 77 79 76 73 77 69 74 77 82 81 82 80 79 76 94 90 94 95 94 95 95 94 89 78 55 52 40 41 42 41 44 47 52 53 77 82 82 78 76
11 16 28 44 74 84 77 75 83 80 81 81 75 78 84 85 78 87 82 92 94 97 96 90 96 93 89 69 58 46 43 38 41 35 46 50 54 58 54 82 85 84 81
10 16 25 39 68 83 81 80 83 80 81 89 91 85 87 86 84 81 90 93 91 96 96 93 96 93 82 60 43 48 46 39 39 40 41 47 51 56 59 58 63 66 84
13 17 27 39 64 80 85 88 85 88 88 89 89 87 88 88 89 88 89 94 93 96 95 91 94 93 87 53 59 68 73 66 49 38 39 40 42 49 50 52 51 49 61
16 20 30 35 48 75 79 71 62 71 70 76 83 90 88 90 91 92 89 94 94 94 96 94 93 93 89 66 59 58 76 80 63 44 40 41 49 40 43 46 48 46 45
19 25 29 34 42 70 69 60 60 69 79 88 87 86 88 86 90 92 91 95 94 94 95 94 91 88 84 74 63 54 67 70 70 55 51 40 50 44 41 42 44 43 46
19 27 31 34 44 70 60 52 61 74 80 76 78 81 92 90 90 91 96 94 95 94 93 93 88 86 75 70 64 48 51 43 61 76 61 47 44 47 52 43 45 45 45
17 26 36 36 41 58 54 49 58 62 54 58 72 81 87 94 92 96 95 96 95 95 94 92 90 81 72 67 60 60 54 46 53 52 59 56 46 43 43 50 45 47 48
15 32 42 42 42 50 52 53 56 58 53 51 69 81 90 96 97 98 96 95 94 93 94 93 88 80 73 68 57 58 55 55 48 47 45 52 52 48 44 46 55 51 50